[[{"header":{"parameterUnit":"m.s-1","parameterCategory":1,"la1":30.2991,"la2":30.254,"lo1":-89.0895,"lo2":-89.0444,"dy":0.0017,"dx":0.0017,"nx":28,"ny":28,"refTime":"2023-10-21T03:00:00:Z","depth":0,"parameterNumber":2,"parameterNumberName":"U-component_of_WINDS"},"data":[0,0,0,0,0,0,0,0,0,0,0,0,0,0,0,0,0,0,0,0,0,0,0,0,0,0,0,0,0,0,0,0,0,0,0,0,0,0,0,0,0,0,0,0,0,0,0,0,0,0,0,0,0,0,0,0,0,0,-2.5879,-2.5879,0,-2.5897,-2.5897,-2.5897,-2.5803,-2.58,-2.5798,-2.5795,-2.5816,-2.5819,-2.5822,0,0,0,0,0,0,0,0,0,0,0,0,0,-2.5765,-2.5768,-2.5879,-2.5879,-2.5879,-2.5897,-2.5897,-2.5897,-2.5804,-2.58,-2.5797,-2.5794,-2.5815,-2.5819,-2.5823,0,0,0,0,0,0,0,0,0,0,0,0,0,-2.5802,-2.5769,-2.5879,-2.5835,-2.5831,-2.5897,-2.5897,-2.5897,-2.5804,-2.58,-2.5796,-2.5792,-2.5814,-2.5819,-2.5823,-2.5933,0,0,-2.5837,-2.5839,0,0,0,0,0,0,0,0,-2.58,-2.5807,-2.5841,-2.5838,-2.5834,-2.5843,-2.5865,-2.591,-2.5805,-2.5815,-2.5795,-2.579,-2.5829,-2.5832,-2.5844,-2.5934,-2.5935,-2.5838,-2.5841,-2.5843,-2.5844,0,0,0,0,0,0,0,-2.5798,-2.5805,-2.5886,-2.5842,-2.5837,-2.5814,-2.5815,-2.5873,-2.5844,-2.5813,-2.5807,-2.581,-2.5826,-2.584,-2.5844,-2.5935,-2.5838,-2.5842,-2.5845,-2.5846,-2.6116,-2.612,0,0,0,0,0,0,-2.5801,-2.5804,-2.5885,-2.5887,-2.5806,-2.582,-2.5821,-2.5845,-2.5843,-2.5839,-2.5813,-2.5805,-2.5834,-2.5839,-2.5845,-2.5973,-2.5842,-2.5847,-2.585,-2.6112,-2.6117,-2.6122,0,0,0,0,0,0,-2.5799,-2.5809,-2.5885,-2.5843,-2.5851,-2.5826,-2.5854,-2.5847,-2.5861,-2.5843,-2.5838,-2.5833,-2.5831,-2.5838,-2.5912,-2.5973,-2.5849,-2.5853,-2.6107,-2.6113,-2.6119,-2.6233,0,0,0,0,0,0,-2.5796,-2.5809,-2.585,-2.5845,-2.5854,-2.5952,-2.5857,-2.585,-2.5869,-2.5859,-2.586,-2.5857,-2.5828,-2.5905,-2.5916,-2.5977,-2.5857,-2.6101,-2.611,-2.6117,-2.6223,-2.6242,-2.6258,0,0,0,0,0,-2.5792,-2.5882,-2.5853,-2.5863,-2.5905,-2.5955,-2.596,-2.5925,-2.5874,-2.5916,-2.5904,-2.5857,-2.5964,-2.5914,-2.5925,-2.5988,-2.6097,-2.6107,-2.6117,-2.6215,-2.6239,-2.6258,0,0,0,0,0,0,-2.5897,-2.5881,-2.5848,-2.5939,-2.5949,-2.5939,-2.5991,-2.5951,-2.5977,-2.5966,-2.5922,-2.5924,-2.6005,-2.6003,-2.5948,-2.6095,-2.6022,-2.6034,-2.6093,-2.6115,-2.6132,-2.6131,-2.5861,0,0,0,0,0,-2.593,-2.5972,-2.5955,-2.6037,-2.6044,-2.6017,-2.6037,-2.6009,-2.6018,-2.6023,-2.6016,-2.6028,-2.6064,-2.6089,-2.6121,-2.6222,-2.6221,-2.6271,-2.6289,-2.6303,-2.6315,-2.6368,-2.639,-2.6154,-2.6154,-2.6154,0,0,-2.6,-2.5996,-2.6026,-2.6058,-2.6063,-2.6107,-2.6021,-2.6072,-2.6105,-2.603,-2.61,-2.6095,-2.6105,-2.6193,-2.6231,-2.6194,-2.638,-2.6316,-2.6327,-2.6331,-2.6381,-2.6403,-2.6423,-2.6161,-2.616,-2.6159,0,0,-2.615,-2.6151,-2.6219,-2.6225,-2.6233,-2.6214,-2.623,-2.6226,-2.622,-2.6289,-2.6234,-2.6272,-2.6335,-2.6344,-2.6357,-2.651,-2.6467,-2.6521,-2.6614,-2.6666,-2.6685,-2.6701,-2.6756,-2.6776,-2.6533,-2.6533,-2.6533,0,-2.6237,-2.6301,-2.626,-2.6314,-2.633,-2.6263,-2.6332,-2.634,-2.6359,-2.6372,-2.6329,-2.6407,-2.6409,-2.6498,-2.6535,-2.6547,-2.6565,-2.6522,-2.6685,-2.6701,-2.6716,-2.6768,-2.6788,-2.654,-2.6539,-2.6538,-2.6538,0,-2.6407,-2.6453,-2.6507,-2.6525,-2.6547,-2.6608,-2.6577,-2.6604,-2.6573,-2.6559,-2.6629,-2.6629,-2.666,-2.6678,-2.665,-2.6763,-2.674,-2.6692,-2.6619,-2.6746,-2.6794,-2.6813,-2.6549,-2.6547,-2.6545,-2.6543,0,0,-2.6626,-2.6619,-2.664,-2.6647,-2.6649,-2.6684,-2.6742,-2.6771,-2.6796,-2.681,-2.6858,-2.6913,-2.6868,-2.6883,-2.6854,-2.69,-2.7021,-2.6846,-2.6846,-2.688,-2.7147,-2.7184,-2.7207,-2.6992,-2.6996,-2.6998,-2.7146,0,-2.6774,-2.6872,-2.6836,-2.6938,-2.6979,-2.6915,-2.6966,-2.6973,-2.6961,-2.6995,-2.6981,-2.7021,-2.6959,-2.6967,-2.7009,-2.6998,-2.7074,-2.6986,-2.7038,-2.704,-2.7039,-2.7232,-2.7272,-2.7411,-2.7165,-2.7168,-2.717,0,-2.696,-2.698,-2.7086,-2.708,-2.7096,-2.7143,-2.7166,-2.7199,-2.7206,-2.7193,-2.7209,-2.7171,-2.7228,-2.7153,-2.7231,-2.7172,-2.719,-2.7187,-2.7192,-2.7197,-2.7114,-2.7244,-2.7455,-2.7477,-2.7199,-2.7197,-2.7195,0,-2.711,-2.7164,-2.7234,-2.7242,-2.7237,-2.7271,-2.7271,-2.7273,-2.7293,-2.7313,-2.7326,-2.7353,-2.7368,-2.7391,-2.736,-2.7308,-2.7443,-2.7366,-2.7436,-2.7437,-2.7468,-2.7467,-2.7687,-2.7478,-2.7478,-2.7478,-2.7477,0,-2.728,-2.7347,-2.7301,-2.7345,-2.7418,-2.7375,-2.7449,-2.7442,-2.7444,-2.7485,-2.7432,-2.7471,-2.7428,-2.7464,-2.744,-2.7509,-2.7516,-2.7509,-2.7502,-2.7514,-2.7516,-2.7527,-2.7517,-2.7483,-2.7482,-2.7481,-2.748,0,-2.7461,-2.7433,-2.7505,-2.7493,-2.7492,-2.7547,-2.7538,-2.7577,-2.756,-2.7613,-2.7623,-2.7597,-2.7636,-2.7607,-2.7646,-2.763,-2.7721,-2.77,-2.7719,-2.7714,-2.7786,-2.778,-2.8022,-2.8052,-2.7823,-2.7825,-2.7827,0,-2.7572,-2.7622,-2.7615,-2.7638,-2.7641,-2.7679,-2.7698,-2.7658,-2.768,-2.7691,-2.773,-2.7764,-2.7789,-2.7855,-2.784,-2.787,-2.785,-2.7932,-2.7854,-2.7865,-2.7852,-2.785,-2.7855,-2.7949,-2.7952,-2.7954,-2.7956,0,-2.7772,-2.7755,-2.7784,-2.7809,-2.7833,-2.7851,-2.7864,-2.7886,-2.7845,-2.7873,-2.7911,-2.7931,-2.797,-2.8005,-2.8029,-2.8029,-2.7987,-2.798,-2.7998,-2.8012,-2.8021,-2.8018,-2.7764,-2.7975,-2.7973,-2.7972,-2.7971,-2.797,-2.7922,-2.7963,-2.7965,-2.7999,-2.8004,-2.8018,-2.8055,-2.8041,-2.8073,-2.8101,-2.8075,-2.8122,-2.8126,-2.8154,-2.8159,-2.8195,-2.8161,-2.8187,-2.8194,-2.8201,-2.8212,-2.8014,-2.8199,-2.8199,-2.8198,-2.8198,-2.8197,0,-2.812,-2.8117,-2.8149,-2.8169,-2.8196,-2.8151,-2.8163,-2.8189,-2.8231,-2.8238,-2.8264,-2.8308,-2.8341,-2.8328,-2.8358,-2.8389,-2.8371,-2.8399,-2.8397,-2.8397,-2.824,-2.8222,-2.8413,-2.8413,-2.8413,-2.8413,-2.8413,-2.8413,-2.8226,-2.8294,-2.8277,-2.8347,-2.8343,-2.8388,-2.8399,-2.8411,-2.8417,-2.8469,-2.8496,-2.8486,-2.8485,-2.8514,-2.8543,-2.8538,-2.8552,-2.8587,-2.8576,-2.843,-2.8409,-2.8388,-2.8371,-2.859,-2.8591,-2.873,-2.8731,-2.8732]},{"header":{"parameterUnit":"m.s-1","parameterCategory":1,"la1":30.2991,"la2":30.254,"lo1":-89.0895,"lo2":-89.0444,"dy":0.0017,"dx":0.0017,"nx":28,"ny":28,"refTime":"2023-10-21T03:00:00:Z","depth":0,"parameterNumber":3,"parameterNumberName":"V-component_of_WINDS"},"data":[0,0,0,0,0,0,0,0,0,0,0,0,0,0,0,0,0,0,0,0,0,0,0,0,0,0,0,0,0,0,0,0,0,0,0,0,0,0,0,0,0,0,0,0,0,0,0,0,0,0,0,0,0,0,0,0,0,0,-2.8808,-2.8808,0,-2.8854,-2.8855,-2.8855,-2.8808,-2.8806,-2.8805,-2.8803,-2.8848,-2.885,-2.8853,0,0,0,0,0,0,0,0,0,0,0,0,0,-2.8676,-2.8678,-2.8808,-2.8809,-2.8809,-2.8854,-2.8855,-2.8855,-2.8809,-2.8806,-2.8804,-2.8802,-2.8847,-2.885,-2.8854,0,0,0,0,0,0,0,0,0,0,0,0,0,-2.8729,-2.8679,-2.8808,-2.8791,-2.879,-2.8854,-2.8855,-2.8856,-2.8809,-2.8806,-2.8803,-2.8801,-2.8845,-2.885,-2.8854,-2.8936,0,0,-2.8867,-2.8869,0,0,0,0,0,0,0,0,-2.8726,-2.8734,-2.8793,-2.8792,-2.8791,-2.8823,-2.8825,-2.8882,-2.881,-2.8802,-2.8803,-2.88,-2.8841,-2.8846,-2.886,-2.8938,-2.894,-2.8868,-2.887,-2.8872,-2.8873,0,0,0,0,0,0,0,-2.8722,-2.8731,-2.8826,-2.8794,-2.8793,-2.878,-2.8785,-2.8835,-2.8836,-2.8802,-2.8799,-2.8805,-2.884,-2.8856,-2.8861,-2.8941,-2.8868,-2.8871,-2.8874,-2.8876,-2.9087,-2.909,0,0,0,0,0,0,-2.8721,-2.8729,-2.8825,-2.8828,-2.8751,-2.8785,-2.879,-2.8815,-2.8836,-2.8836,-2.8808,-2.8803,-2.885,-2.8856,-2.8863,-2.896,-2.8872,-2.8876,-2.8879,-2.9084,-2.9088,-2.9091,0,0,0,0,0,0,-2.8718,-2.873,-2.8823,-2.8777,-2.8788,-2.879,-2.8819,-2.8818,-2.8834,-2.884,-2.8839,-2.8824,-2.8848,-2.8856,-2.8918,-2.896,-2.8878,-2.8882,-2.908,-2.9085,-2.9089,-2.9154,0,0,0,0,0,0,-2.8714,-2.8729,-2.8761,-2.8778,-2.8791,-2.8879,-2.8822,-2.8821,-2.8842,-2.8836,-2.8855,-2.8855,-2.8847,-2.8912,-2.8922,-2.8965,-2.8886,-2.9077,-2.9082,-2.9088,-2.9148,-2.9161,-2.9171,0,0,0,0,0,-2.871,-2.8777,-2.8763,-2.8775,-2.8831,-2.8881,-2.8888,-2.8878,-2.8845,-2.8877,-2.8881,-2.8855,-2.8954,-2.8919,-2.893,-2.8975,-2.9074,-2.9081,-2.9087,-2.9143,-2.9158,-2.9171,0,0,0,0,0,0,-2.8763,-2.8779,-2.8763,-2.8838,-2.8859,-2.8873,-2.8913,-2.8894,-2.8923,-2.8917,-2.8901,-2.8906,-2.8971,-2.8979,-2.8939,-2.9055,-2.9009,-2.9018,-2.9047,-2.9061,-2.9072,-2.9069,-2.8889,0,0,0,0,0,-2.8784,-2.8825,-2.8835,-2.89,-2.8912,-2.8911,-2.8932,-2.8922,-2.8943,-2.8951,-2.8959,-2.8979,-2.9015,-2.9038,-2.9071,-2.9149,-2.9152,-2.9185,-2.9197,-2.9206,-2.9214,-2.9255,-2.927,-2.9113,-2.9113,-2.9113,0,0,-2.8827,-2.884,-2.8867,-2.8912,-2.8926,-2.8968,-2.8918,-2.8964,-2.8994,-2.8957,-2.9016,-2.9023,-2.9044,-2.9115,-2.9146,-2.9123,-2.9258,-2.9215,-2.9222,-2.9225,-2.9264,-2.9279,-2.9292,-2.9118,-2.9117,-2.9116,0,0,-2.8926,-2.8941,-2.8996,-2.9012,-2.9036,-2.9035,-2.9048,-2.9065,-2.9069,-2.9128,-2.9101,-2.9136,-2.9198,-2.9214,-2.923,-2.9336,-2.9313,-2.9347,-2.9406,-2.9446,-2.9458,-2.9469,-2.9507,-2.952,-2.9355,-2.9355,-2.9355,0,-2.8976,-2.9038,-2.9027,-2.9075,-2.9095,-2.9065,-2.912,-2.9136,-2.9169,-2.9183,-2.9157,-2.9234,-2.9246,-2.932,-2.9345,-2.936,-2.9374,-2.9345,-2.9458,-2.9469,-2.9479,-2.9514,-2.9528,-2.9359,-2.9359,-2.9358,-2.9358,0,-2.9098,-2.9142,-2.9184,-2.9217,-2.9242,-2.9294,-2.9289,-2.9316,-2.9304,-2.9305,-2.9365,-2.9379,-2.9414,-2.9431,-2.9419,-2.9503,-2.9488,-2.946,-2.9414,-2.9498,-2.9531,-2.9544,-2.9365,-2.9364,-2.9362,-2.9361,0,0,-2.9232,-2.9259,-2.9275,-2.9289,-2.9313,-2.9346,-2.9396,-2.9431,-2.9454,-2.9478,-2.9519,-2.9572,-2.9547,-2.9565,-2.9555,-2.9591,-2.9673,-2.9559,-2.9559,-2.9579,-2.9765,-2.9786,-2.9802,-2.9658,-2.9661,-2.9663,-2.9763,0,-2.9332,-2.942,-2.9411,-2.9494,-2.9534,-2.9505,-2.9549,-2.9567,-2.957,-2.9603,-2.9605,-2.9643,-2.9607,-2.9618,-2.9652,-2.9656,-2.971,-2.9648,-2.9695,-2.9697,-2.9691,-2.9819,-2.9841,-2.9935,-2.9776,-2.9778,-2.978,0,-2.946,-2.9489,-2.9577,-2.9594,-2.9611,-2.965,-2.9681,-2.9714,-2.9734,-2.9734,-2.9755,-2.9738,-2.9788,-2.974,-2.9808,-2.9766,-2.9785,-2.9789,-2.9792,-2.9796,-2.9744,-2.9826,-2.9965,-2.9979,-2.98,-2.9799,-2.9797,0,-2.9548,-2.9609,-2.967,-2.9683,-2.9705,-2.9734,-2.9744,-2.9762,-2.9784,-2.9811,-2.9825,-2.9857,-2.9875,-2.99,-2.9892,-2.9859,-2.9961,-2.9913,-2.9961,-2.9962,-2.9984,-2.9983,-3.0128,-2.9997,-2.9996,-2.9996,-2.9996,0,-2.966,-2.9715,-2.971,-2.9747,-2.9807,-2.9796,-2.9855,-2.9862,-2.9878,-2.9915,-2.9892,-2.9927,-2.9915,-2.9949,-2.9944,-3.0,-3.0008,-3.0008,-3.0006,-3.001,-3.001,-3.0022,-3.0015,-3.0,-2.9999,-2.9998,-2.9998,0,-2.9769,-2.9768,-2.9832,-2.9848,-2.9853,-2.9897,-2.991,-2.9944,-2.9945,-2.9993,-3.0003,-3.0004,-3.0043,-3.0038,-3.0081,-3.0078,-3.0148,-3.0138,-3.0141,-3.0139,-3.0187,-3.0183,-3.0345,-3.0365,-3.0221,-3.0222,-3.0223,0,-2.9841,-2.9882,-2.9903,-2.9927,-2.994,-2.9978,-3.0001,-2.9991,-3.0015,-3.0041,-3.0073,-3.011,-3.0139,-3.0203,-3.0207,-3.024,-3.023,-3.0284,-3.0235,-3.0238,-3.023,-3.0228,-3.0232,-3.0294,-3.0296,-3.0297,-3.0298,0,-2.9968,-2.9965,-2.9999,-3.0033,-3.0061,-3.0087,-3.011,-3.0131,-3.0123,-3.0151,-3.0191,-3.0214,-3.0259,-3.0296,-3.0327,-3.0336,-3.0316,-3.0314,-3.0327,-3.0332,-3.0332,-3.0332,-3.0168,-3.031,-3.0309,-3.0308,-3.0308,-3.0307,-3.006,-3.0096,-3.0116,-3.0154,-3.0171,-3.0194,-3.0227,-3.0232,-3.0266,-3.0302,-3.0294,-3.034,-3.0358,-3.0398,-3.0411,-3.0446,-3.0426,-3.0444,-3.0449,-3.0454,-3.0459,-3.0327,-3.0451,-3.0451,-3.0451,-3.045,-3.045,0,-3.0186,-3.0198,-3.0233,-3.0267,-3.0297,-3.0277,-3.0301,-3.0327,-3.0368,-3.0388,-3.0417,-3.0463,-3.0499,-3.0506,-3.054,-3.0567,-3.0558,-3.0576,-3.0574,-3.0576,-3.0475,-3.0461,-3.0582,-3.0582,-3.0582,-3.0582,-3.0582,-3.0582,-3.0255,-3.0314,-3.0314,-3.0381,-3.0391,-3.0437,-3.0453,-3.0473,-3.0489,-3.0542,-3.0572,-3.0576,-3.0591,-3.0626,-3.0657,-3.0658,-3.0672,-3.0693,-3.0691,-3.0596,-3.0583,-3.0571,-3.0557,-3.0696,-3.0696,-3.0788,-3.0789,-3.079]}]]